Flag for U.S.A. Weather past 2 weeks in Rancho Cucamonga, California, U.S.A.

Now
75 °F

Partly sunny.


Feels Like: 78 °F
Forecast: 55 / 77 °F
Wind: 12 mph from West

Location: Ontario International Airport


UV Index: 5 (Moderate)

Visibility: 9 mi


Pressure: 29.95 "Hg

Humidity: 42%

Dew point: 50 °F

Location of Rancho CucamongaLocation

Historic Weather in Rancho Cucamonga

°F

Rancho Cucamonga temperature yesterday

Maximum temperature yesterday: 75 °F (at 2:53 PM)
Minimum temperature yesterday: 59 °F (at 12:53 AM)
Average temperature yesterday: 64 °F

Past Weeks' High & Low Weather Summary

 TemperatureHumidityPressure
High92 °F (Apr 8, 3:53 PM)93% (Apr 16, 4:53 AM)30.09 "Hg (Apr 16, 4:53 AM)
Low48 °F (Apr 5, 3:53 AM)3% (Apr 9, 2:53 PM)29.74 "Hg (Apr 16, 3:53 PM)
Average67 °F47%29.93 "Hg
* Reported Apr 4 12:53 PM — Apr 19 12:53 PM, Rancho Cucamonga, Weather by CustomWeather, © 2014

Note: Actual official high and low records may vary slightly from our data, if they occured in-between our weather recording intervals... More about our weather records

Advertising

Historic Weather Conditions — Data for Previous 24 hours

 ConditionsComfort  
Time TempWeatherWind HumidityBarometerVisibility
12:53 PM
Apr 19
75 °FPartly sunny.12 mph42%29.95 "Hg9 mi
11:53 AM71 °FHigh level clouds.9 mph49%29.97 "Hg9 mi
10:53 AM69 °FPartly sunny.8 mph55%29.98 "Hg9 mi
9:53 AM64 °FScattered clouds.3 mph63%29.97 "Hg9 mi
8:53 AM61 °FPassing clouds.6 mph72%29.96 "Hg9 mi
7:53 AM59 °FPassing clouds.No wind75%29.96 "Hg9 mi
6:53 AM55 °FClear.5 mph83%29.94 "Hg9 mi
5:53 AM55 °FPassing clouds.5 mph83%29.92 "Hg10 mi
4:53 AM56 °FPassing clouds.No wind81%29.90 "Hg10 mi
3:53 AM57 °FPassing clouds.No wind78%29.92 "Hg10 mi
2:53 AM56 °FPassing clouds.3 mph81%29.91 "Hg10 mi
1:53 AM58 °FPassing clouds.5 mph75%29.92 "Hg10 mi
12:53 AM59 °FPassing clouds.3 mph72%29.93 "Hg10 mi
11:53 PM
Apr 18
60 °FPassing clouds.3 mph72%29.92 "Hg10 mi
10:53 PM61 °FPassing clouds.8 mph67%29.91 "Hg10 mi
9:53 PM61 °FPassing clouds.6 mph72%29.91 "Hg10 mi
8:53 PM62 °FPartly cloudy.8 mph67%29.90 "Hg10 mi
7:53 PM64 °FBroken clouds.10 mph61%29.87 "Hg10 mi
6:53 PM66 °FPartly sunny.13 mph59%29.85 "Hg10 mi
5:53 PM71 °FPartly sunny.14 mph51%29.83 "Hg10 mi
4:53 PM73 °FPartly sunny.16 mph46%29.82 "Hg10 mi
3:53 PM73 °FPartly sunny.10 mph43%29.82 "Hg10 mi
2:53 PM75 °FSunny.8 mph37%29.84 "Hg10 mi
Weather by CustomWeather, © 2014

See weather overview